Regional Weather Roundup
Issued by NWS

Home | Current Version | Previous Version | Graphics & Text | Print | Product List | Glossary On
Versions: 1 2 3 4 5 6 7 8 9 10 11 12 13 14 15 16 17 18 19 20 21 22 23 24 25 26 27 28 29 30 31 32 33 34 35 36 37 38 39 40 41 42 43 44 45 46 47 48 49 50
000
ASUS43 KDMX 301807
RWRIA

WEATHER ROUNDUP FOR IOWA
NATIONAL WEATHER SERVICE DES MOINES IA
1200 PM CST FRI JAN 30 2015

NOTE: "FAIR" INDICATES FEW OR NO CLOUDS BELOW 12,000 FEET WITH NO
SIGNIFICANT WEATHER AND/OR OBSTRUCTIONS TO VISIBILITY.

* - THESE STATIONS ARE NOT NWS STATIONS...THUS NOT UNDER NWS
QUALITY CONTROL.  THEY ALSO DO NOT REPORT WEATHER SUCH
AS PRECIPITATION OR FOG.

IAZ001>003-012>014-020>022-031>034-043>046-301900-
   NORTHWEST IOWA

CITY           SKY/WX    TMP DP  RH WIND       PRES   REMARKS
CARROLL *      SUNNY     28  18  64 S10       30.47F WCI  19
CHEROKEE *     SUNNY     27  21  79 S13       30.44F WCI  16
DENISON *      SUNNY     28  19  69 S10G17    30.45F WCI  19
LE MARS *      MOSUNNY   28  23  80 S15G21    30.43F WCI  17
ORANGE CITY *  SUNNY     28  21  74 S14       30.41F WCI  17
SHELDON *      SUNNY     27  23  86 S12       30.40F WCI  16
SIOUX CITY     MOSUNNY   31  22  69 S12       30.45F WCI  22
6HR MIN TEMP:  16; 6HR MAX TEMP:  31;

SPENCER        SUNNY     27  18  69 SW12      30.43F WCI  17
6HR MIN TEMP:  13; 6HR MAX TEMP:  27;

STORM LAKE *   SUNNY     27  19  74 S13G21    30.44F WCI  16
$$

IAZ055>058-069>071-079>083-090>094-301900-
   SOUTHWEST IOWA

CITY           SKY/WX    TMP DP  RH WIND       PRES   REMARKS
ATLANTIC *     SUNNY     28  18  64 S8        30.49F WCI  20
AUDUBON *      SUNNY     28  19  69 S7        30.49F WCI  21
CLARINDA *     SUNNY     32  18  55 VRB7      30.53F WCI  26
COUNCIL BLFS * SUNNY     30  23  74 S10       30.47F WCI  21
CRESTON *      SUNNY     28  18  64 S6        30.51F WCI  22
HARLAN  *      SUNNY     28  21  74 S9        30.52F WCI  20
LAMONI         SUNNY     28  16  60 SW3       30.52F
6HR MIN TEMP:  15; 6HR MAX TEMP:  28;

RED OAK *      SUNNY     30  18  59 S8        30.51F WCI  23
SHENANDOAH *   SUNNY     30  21  69 VRB6      30.52F WCI  24
$$

IAZ047>049-059>061-072>074-084-301900-
   CENTRAL IOWA

CITY           SKY/WX    TMP DP  RH WIND       PRES   REMARKS
AMES           SUNNY     25  14  63 S7        30.51F WCI  17
6HR MIN TEMP:  14; 6HR MAX TEMP:  25;

ANKENY *       SUNNY     27  12  54 S8        30.52F WCI  18
CHARITON *     SUNNY     27  16  63 CALM      30.53F
DES MOINES     PTSUNNY   28  13  53 SW6       30.53F WCI  22
6HR MIN TEMP:  17; 6HR MAX TEMP:  28;

GRINNELL*      SUNNY     25  12  58 CALM      30.53F
KNOXVILLE *    SUNNY     27  10  50 CALM      30.52F
MARSHALLTOWN   SUNNY     24  10  55 CALM      30.50F
6HR MIN TEMP:  13; 6HR MAX TEMP:  24;

PELLA *        SUNNY     29  14  54 CALM      30.55F
PERRY *          N/A     27  18  69 S7        30.50F WCI  19
$$

IAZ004>006-015-016-023>025-035-036-301900-
   NORTH CENTRAL IOWA

CITY           SKY/WX    TMP DP  RH WIND       PRES   REMARKS
ALGONA *       SUNNY     25  18  74 S8G15     30.48S WCI  16
CLARION *      SUNNY     23  18  80 S8        30.48F WCI  14
ESTHERVILLE    SUNNY     24  14  65 S8        30.44F WCI  15
6HR MIN TEMP:  11; 6HR MAX TEMP:  24;

FORT DODGE *   SUNNY     27  16  63 S12       30.48F WCI  16
MASON CITY     SUNNY     22  13  68 S7        30.50F WCI  13
6HR MIN TEMP:   8; 6HR MAX TEMP:  23;

FOREST CITY *  SUNNY     25  12  58 S9        30.48F WCI  15
IOWA FALLS *     N/A     25  14  63 S6        30.50F WCI  18
$$

IAZ007>011-017>019-026>030-037>042-050>054-066-301900-
   NORTHEAST IOWA

CITY           SKY/WX    TMP DP  RH WIND       PRES   REMARKS
CEDAR RAPIDS   SUNNY     25  14  63 VRB5      30.51F WCI  19
6HR MIN TEMP:  13; 6HR MAX TEMP:  25;

CHARLES CITY * SUNNY     23   9  54 SW5       30.51F WCI  17
CLINTON *      SUNNY     25  12  58 CALM      30.57S
DECORAH *      SUNNY     19   5  53 VRB5      30.49F WCI  13
DUBUQUE        SUNNY     21  10  62 SW3       30.50F
6HR MIN TEMP:  11; 6HR MAX TEMP:  23;

MONTICELLO *   SUNNY     25  12  58 CALM      30.52F
OELWEIN *      SUNNY     23   9  54 CALM      30.51F
WATERLOO       SUNNY     23   8  52 VRB5      30.51F WCI  17
6HR MIN TEMP:  10; 6HR MAX TEMP:  23;

$$

IAZ064-065-067-068-078-301900-
   EAST CENTRAL IOWA

CITY           SKY/WX    TMP DP  RH WIND       PRES   REMARKS
DAVENPORT      SUNNY     25  11  55 CALM      30.54S
6HR MIN TEMP:  12; 6HR MAX TEMP:  25;

IOWA CITY      SUNNY     26  15  63 SW5       30.56F WCI  20
6HR MIN TEMP:  17; 6HR MAX TEMP:  26;

MT. PLEASANT * SUNNY     28  15  57 CALM      30.54F
MUSCATINE *    SUNNY     28  14  54 CALM      30.56S
QUAD CITIES    SUNNY     26  12  55 CALM      30.54S
6HR MIN TEMP:  19; 6HR MAX TEMP:  27;

$$

IAZ062-063-075>077-085>089-095>099-301900-
   SOUTHEAST IOWA

CITY           SKY/WX    TMP DP  RH WIND       PRES   REMARKS
BURLINGTON     SUNNY     28  17  63 VRB3      30.53F
6HR MIN TEMP:  21; 6HR MAX TEMP:  29;

FAIRFIELD *    SUNNY     27  12  54 VRB5      30.53F WCI  21
FORT MADISON * SUNNY     28  18  64 CALM      30.54F
KEOKUK *       SUNNY     30  16  55 W5        30.53F WCI  25
OSKALOOSA *      N/A     26  15  62 W3        30.54F
CENTERVILLE *  SUNNY     28  16  59 CALM      30.54F
OTTUMWA        SUNNY     27  13  55 CALM      30.53F
6HR MIN TEMP:  13; 6HR MAX TEMP:  27;

WASHINGTON *   SUNNY     27  18  69 CALM      30.54F
$$

ABBREVIATIONS USED IN REMARKS
   TC - TEMPERATURES IN CELSIUS
  WCI - WIND CHILL INDEX
   HX - HEAT INDEX
  VSB - VISIBILITY
$$




USA.gov is the U.S. government's official web portal to all federal, state and local government web resources and services.